Location: ????? ????
(37.9717°N, 23.4051°E)
Time: 10:32:05
(UTC+00:00)

USA 267 - Pass Details

Date: 18 April 2024
Orbit: 1100 x 1107 km, 123.0° (Epoch: 15 May)

Event Time Altitude Azimuth Distance (km) Brightness Sun altitude
Rises 17:34:16 0° 42° (NE) 3,922 5.9 -6.3°
Reaches altitude 10° 17:36:47 10° 38° (NE) 2,963 5.4 -6.7°
Maximum altitude 17:43:09 57° 322° (NW) 1,287 4.0 -7.9°
Drops below altitude 10° 17:49:30 10° 246° (WSW) 2,958 6.2 -9.1°
Sets 17:52:01 0° 242° (WSW) 3,915 6.8 -9.5°
